Change the Weather History Date:

Wednesday, December 12, 2012

  Actual Average Record
Temperature  
Mean Temperature 19 °F -  
Max Temperature 25 °F 37 °F 51 °F (2000)
Min Temperature 13 °F 32 °F 13 °F (2012)
Degree Days  
Heating Degree Days 46    
Moisture  
Dew Point 16 °F    
Average Humidity 90    
Maximum Humidity 100    
Minimum Humidity 74    
Precipitation  
Precipitation 0.00 in - - ()
Sea Level Pressure  
Sea Level Pressure 30.06 in    
Wind  
Wind Speed 3 mph ()    
Max Wind Speed 7 mph    
Max Gust Speed -    
Visibility 6.3 miles    
Events Fog    
Averages and records for this station are not official NWS values.
T = Trace of Precipitation, MM = Missing Value Source: Averaged Metar Reports

Daily Weather History Graph

Daily Weather History Graph

Search for Another Location

Airport or City:

Trip Planner

Search our weather history database for the weather conditions in past years. The results will help you decide how hot, cold, wet, or windy it might be!

Date:

Astronomy

Dec. 12, 2012 Rise Set
Actual Time 8:48 AM CET 3:46 PM CET
Civil Twilight 8:00 AM CET 4:34 PM CET
Nautical Twilight 7:11 AM CET 5:23 PM CET
Astronomical Twilight 6:25 AM CET 6:09 PM CET
Moon 7:27 AM CET (12/12) 3:11 PM CET (12/12)
Length of Visible Light 8h 33m
Length of Day
6h 58m
Waning Crescent, 1% of the Moon is Illuminated
Dec 12
Waning Crescent
Dec 13
New
Dec 20
First Quarter
Dec 28
Full
Jan 5
Last Quarter

Hourly Weather History & Observations

Time (CET) Temp. Windchill Dew Point Humidity Pressure Visibility Wind Dir Wind Speed Gust Speed Precip Events Conditions
12:20 AM 23.0 °F - 21.2 °F 93% 30.12 in 6.2 mi Calm Calm - N/A   Mostly Cloudy
12:50 AM 23.0 °F - 21.2 °F 93% 30.12 in 6.2 mi SW 2.3 mph - N/A   Mostly Cloudy
1:00 AM 23 °F - 22 °F 92% 30.14 in 7 mi SW 3.5 mph - -   Mostly Cloudy
1:20 AM 23.0 °F - 21.2 °F 93% 30.12 in 6.2 mi WSW 1.2 mph - N/A   Mostly Cloudy
1:50 AM 23.0 °F - 21.2 °F 93% 30.12 in 6.2 mi WSW 2.3 mph - N/A   Mostly Cloudy
2:21 AM 21.2 °F - 19.4 °F 93% 30.09 in 6.2 mi West 2.3 mph - N/A   Scattered Clouds
2:50 AM 21.2 °F - 19.4 °F 93% 30.09 in 6.2 mi Calm Calm - N/A   Scattered Clouds
3:20 AM 19.4 °F - 19.4 °F 100% 30.09 in 6.2 mi East 2.3 mph - N/A   Partly Cloudy
3:50 AM 17.6 °F 12.3 °F 17.6 °F 100% 30.09 in 6.2 mi SSE 3.5 mph - N/A   Partly Cloudy
4:00 AM 18 °F - 17 °F 91% 30.12 in 7 mi SSE 3.5 mph - -   Scattered Clouds
4:20 AM 17.6 °F 12.3 °F 15.8 °F 93% 30.09 in 6.2 mi South 3.5 mph - N/A   Partly Cloudy
4:50 AM 15.8 °F 10.2 °F 14.0 °F 93% 30.09 in 6.2 mi SSW 3.5 mph - N/A   Partly Cloudy
5:20 AM 15.8 °F - 14.0 °F 93% 30.06 in 6.2 mi South 1.2 mph - N/A   Partly Cloudy
5:50 AM 15.8 °F - 12.2 °F 86% 30.09 in 6.2 mi SE 1.2 mph - N/A   Partly Cloudy
6:20 AM 14.0 °F - 12.2 °F 93% 30.06 in 6.2 mi SE 2.3 mph - N/A   Partly Cloudy
6:50 AM 14.0 °F - 12.2 °F 93% 30.06 in 6.2 mi SSE 2.3 mph - N/A   Partly Cloudy
7:00 AM 13 °F - 11 °F 90% 30.10 in 9 mi SSE 4.6 mph - -   Scattered Clouds
7:20 AM 14.0 °F - 12.2 °F 93% 30.06 in 6.2 mi South 2.3 mph - N/A   Partly Cloudy
7:50 AM 14.0 °F 6.5 °F 12.2 °F 93% 30.06 in 6.2 mi South 4.6 mph - N/A   Partly Cloudy
8:20 AM 14.0 °F 6.5 °F 12.2 °F 93% 30.06 in 6.2 mi South 4.6 mph - N/A   Partly Cloudy
8:50 AM 14.0 °F 6.5 °F 12.2 °F 93% 30.06 in 6.2 mi South 4.6 mph - N/A   Partly Cloudy
9:20 AM 15.8 °F 8.6 °F 14.0 °F 93% 30.06 in 6.2 mi South 4.6 mph - N/A   Partly Cloudy
9:50 AM 17.6 °F 12.3 °F 15.8 °F 93% 30.06 in 6.2 mi SSE 3.5 mph - N/A   Partly Cloudy
10:00 AM 18 °F - 16 °F 86% 30.10 in 7 mi SSE 3.5 mph - -   Scattered Clouds
10:20 AM 19.4 °F 14.3 °F 17.6 °F 93% 30.06 in - South 3.5 mph - N/A   Clear
10:50 AM 21.2 °F 16.4 °F 19.4 °F 93% 30.06 in - South 3.5 mph - N/A   Clear
11:20 AM 23.0 °F 18.4 °F 19.4 °F 86% 30.06 in 6.2 mi South 3.5 mph - N/A   Partly Cloudy
11:50 AM 24.8 °F 19.1 °F 21.2 °F 86% 30.06 in 6.2 mi South 4.6 mph - N/A   Partly Cloudy
12:20 PM 24.8 °F 20.5 °F 19.4 °F 80% 30.06 in 6.2 mi South 3.5 mph - N/A   Partly Cloudy
12:50 PM 24.8 °F 19.1 °F 19.4 °F 80% 30.06 in 6.2 mi South 4.6 mph - N/A   Partly Cloudy
1:00 PM 25 °F - 20 °F 74% 30.09 in 9 mi South 4.6 mph - -   Scattered Clouds
1:20 PM 24.8 °F 17.9 °F 19.4 °F 80% 30.06 in 6.2 mi South 5.8 mph - N/A   Partly Cloudy
1:50 PM 24.8 °F 17.9 °F 19.4 °F 80% 30.06 in - SSW 5.8 mph - N/A   Clear
2:20 PM 24.8 °F 16.9 °F 19.4 °F 80% 30.06 in - South 6.9 mph - N/A   Clear
2:50 PM 24.8 °F 16.9 °F 19.4 °F 80% 30.04 in - South 6.9 mph - N/A   Clear
3:20 PM 23.0 °F 17.0 °F 19.4 °F 86% 30.04 in - SSE 4.6 mph - N/A   Clear
3:50 PM 23.0 °F 17.0 °F 17.6 °F 80% 30.04 in - SSE 4.6 mph - N/A   Clear
4:00 PM 22 °F - 18 °F 79% 30.07 in 12 mi SSE 4.6 mph - -   Scattered Clouds
4:20 PM 21.2 °F 13.6 °F 17.6 °F 86% 30.04 in - SSE 5.8 mph - N/A   Clear
4:50 PM 19.4 °F 12.8 °F 17.6 °F 93% 30.04 in - SSE 4.6 mph - N/A   Clear
5:20 PM 19.4 °F 12.8 °F 15.8 °F 86% 30.04 in - SSE 4.6 mph - N/A   Clear
5:50 PM 17.6 °F 10.7 °F 15.8 °F 93% 30.04 in - SSE 4.6 mph - N/A   Clear
6:20 PM 17.6 °F 12.3 °F 15.8 °F 93% 30.04 in - SE 3.5 mph - N/A   Clear
6:50 PM 17.6 °F 9.3 °F 14.0 °F 86% 30.04 in - SE 5.8 mph - N/A   Clear
7:00 PM 16 °F - 14 °F 88% 30.06 in 12 mi SSE 3.5 mph - -  
7:20 PM 17.6 °F 12.3 °F 15.8 °F 93% 30.04 in - SSE 3.5 mph - N/A   Clear
7:50 PM 17.6 °F 9.3 °F 14.0 °F 86% 30.04 in - SSE 5.8 mph - N/A   Clear
8:20 PM 15.8 °F 8.6 °F 14.0 °F 93% 30.04 in - SSE 4.6 mph - N/A   Clear
8:50 PM 15.8 °F 8.6 °F 14.0 °F 93% 30.04 in - SE 4.6 mph - N/A   Clear
9:20 PM 15.8 °F 7.2 °F 14.0 °F 93% 30.04 in 1.9 mi SSE 5.8 mph - N/A Fog Patches of Fog
9:41 PM 15.8 °F 8.6 °F 14.0 °F 93% 30.04 in 4.3 mi SSE 4.6 mph - N/A   Unknown
9:50 PM 15.8 °F 8.6 °F 14.0 °F 93% 30.01 in 4.3 mi SSE 4.6 mph - N/A   Unknown
10:00 PM 15 °F - 14 °F 92% 30.05 in 4 mi SSE 3.5 mph - -   Mist
10:22 PM 15.8 °F 8.6 °F 14.0 °F 93% 30.01 in 5.0 mi SSE 4.6 mph - N/A   Clear
10:51 PM 15.8 °F - 14.0 °F 93% 30.01 in 5.0 mi SE 2.3 mph - N/A   Clear
11:20 PM 14.0 °F 8.2 °F 12.2 °F 93% 30.01 in 5.0 mi ESE 3.5 mph - N/A   Clear
11:50 PM 14.0 °F 8.2 °F 12.2 °F 93% 30.01 in 5.0 mi ESE 3.5 mph - N/A   Clear